Regional Weather Roundup
Issued by NWS

Home | Current Version | Previous Version | Text Only | Print | Product List | Glossary On
Versions: 1 2 3 4 5 6 7 8 9 10 11 12 13 14 15 16 17 18 19 20 21 22 23 24 25 26 27
000
ASUS45 KBOU 191910
RWRCO

WEATHER ROUNDUP FOR COLORADO
NATIONAL WEATHER SERVICE DENVER/BOULDER CO
100 PM MDT THU MAY 19 2022

NOTE: "FAIR" INDICATES FEW OR NO CLOUDS BELOW 12000 FEET WITH NO
SIGNIFICANT WEATHER AND/OR OBSTRUCTIONS TO VISIBILITY.

COZ001>005-013-030-031-192000-
...NORTHWEST COLORADO...

CITY           SKY/WX    TMP DP  RH WIND       PRES   REMARKS
CRAIG          FAIR      75  30  19 W31G48    29.70F
HAYDEN         FAIR      71  31  22 W23G37    29.72F
MEEKER         FAIR      74  27  17 S26G41    29.73F
RANGELY        CLOUDY    78  27  15 W25G32    29.67F
RABBIT EARS PA CLOUDY    46  27  46 W12G22    29.96F
STEAMBOAT SPGS FAIR      70  32  24 W23G33    29.71F
WALDEN         FAIR     N/A N/A N/A W29G41    29.79F
$$

COZ006>008-011-192000-
...WEST CENTRAL VALLEYS...

CITY           SKY/WX    TMP DP  RH WIND       PRES   REMARKS
GRAND JUNCTION FAIR      79  28  15 NW10      29.70F
MONTROSE       FAIR      82  24  12 SW15G30   29.76F
EAGLE          FAIR      75  27  17 W25G33    29.75F
RIFLE          FAIR      81  26  13 W28G39    29.72F
DELTA          FAIR      86  22   9 S9G20     29.73F
NUCLA          NOT AVBL
$$

COZ017>023-064>068-192000-
...SOUTHWEST COLORADO...

CITY           SKY/WX    TMP DP  RH WIND       PRES   REMARKS
DURANGO        FAIR      80  23  12 W24G46    29.91F
CORTEZ         FAIR      82  22  11 W16G30    29.88F
PAGOSA SPRINGS FAIR      75  24  15 SW22G30   29.95F
TELLURIDE      PTSUNNY   64  19  17 SW16G26   30.07F
WOLF CREEK PAS FAIR      50  23  34 SW20G40     N/A
$$

COZ009-010-012-014-032>034-037-058>063-192000-
...CENTRAL COLORADO...

CITY           SKY/WX    TMP DP  RH WIND       PRES   REMARKS
ASPEN          FAIR      69  22  16 S10G30    29.85F
BUENA VISTA      N/A     72  19  13 W23G29    29.83F
COPPER MTN     FAIR      52  23  32 SW29G48   30.09S
BERTHOUD PASS  FAIR      45  16  31 W38G67    30.03S
DAKOTA HILL    FAIR      54  19  26 W24G47    29.93F
COTTONWOOD PAS FAIR      61  19  20 W26G48    29.93F
GUNNISON       FAIR      71  22  15 W23G32    29.87F
GRANBY         FAIR      70 -25   2 W31G48    29.78F
KREMMLING      FAIR      73  27  17 W32G45    29.75F
LEADVILLE      FAIR      61  18  18 NW23G43   29.94F
SALIDA         FAIR      77  16  10 W26G40    29.90F
SUNLIGHT       FAIR      50  23  34 SW22G44   30.03F
WILKERSON PASS FAIR      54  14  20 S18G31    30.04F
$$

COZ069>075-192000-
...SAN LUIS VALLEY/SANGRE DE CRISTO MOUNTAINS...

CITY           SKY/WX    TMP DP  RH WIND       PRES   REMARKS
ALAMOSA        FAIR      78  21  12 W21G35    29.88F
DEL NORTE      FAIR      74  24  15 SW18G31   29.90F
LA VETA PASS   FAIR      59  21  23 W17G28    30.02F
SAGUACHE         N/A     75  21  13 W28       29.86F
$$

COZ035-036-038>040-192000-
...NORTHERN COLORADO FRONT RANGE...

CITY           SKY/WX    TMP DP  RH WIND       PRES   REMARKS
DENVER INTL AP PTSUNNY   82  22  11 W7G18     29.59F
AURORA         NOT AVBL
WATKINS        NOT AVBL
ERIE           FAIR      83  21  10 W20G29    29.56F
BOULDER        FAIR      82  27  13 W18G36    29.55F
CENTENNIAL     PTSUNNY   80  25  13 NW7G17    29.61F
BROOMFIELD     PTSUNNY   84  23  10 W23G36    29.58F
FORT COLLINS   FAIR      82  27  13 VRB3      29.53F
LONGMONT       FAIR      85  25  11 SW17G35   29.54F
$$

COZ041-046-047-076>085-087-088-192000-
...PIKES PEAK/PALMER DIVIDE AND SOUTHERN FOOTHILLS...

CITY           SKY/WX    TMP DP  RH WIND       PRES   REMARKS
COLO. SPRINGS  PTSUNNY   84  22  10 SE5       29.67F
A. F. ACADEMY  NOT AVBL
SCHRIEVER AFB  NOT AVBL
CHEYENNE MTN   FAIR      79  22  12 E5        29.99R
ELLICOTT       FAIR      80  23  12 S8G24     29.68F
FALCON         FAIR      79  26  14 SW22G30   29.72F
FORT CARSON    FAIR      83  16   8 SW14G32   29.62F
LIMON          FAIR      82  28  14 S17G24    29.63F
MONUMENT HILL  FAIR      73 -15   3 W15G22    29.73F
CANON CITY     FAIR      86  27  11 W31G38    29.64F
WALSENBURG     NOT AVBL
TRINIDAD       FAIR      88  20   8 SW13G23   29.71F
$$

COZ042>045-048>051-090-091-192000-
...NORTHEAST COLORADO...

CITY           SKY/WX    TMP DP  RH WIND       PRES   REMARKS
GREELEY        FAIR      82  28  14 VRB5      29.53F
AKRON          FAIR      84  23  10 SW12G25   29.56F
BURLINGTON     FAIR      87  39  18 SW21G29   29.58F
WRAY           FAIR      86  30  13 SW14G20   29.52F
YUMA           FAIR      82 -33   1 SW14      29.54F
STERLING       FAIR      84  36  17 S10       29.50F
HOLYOKE        FAIR      88  32  13 S17G23    29.50F
FORT MORGAN    FAIR      84  27  12 W12G18    29.54F
$$

COZ086-089-092>099-192000-
...SOUTHEAST COLORADO...

CITY           SKY/WX    TMP DP  RH WIND       PRES   REMARKS
PUEBLO         FAIR      89  24   9 W21G30    29.60F
LA JUNTA       FAIR      90  25   9 SW15G29   29.59F
LAMAR          FAIR      93  26   9 W26G35    29.55F
SPRINGFIELD      N/A     93  22   7 W9G18     29.62F
$$



USA.gov is the U.S. government's official web portal to all federal, state and local government web resources and services.